NINGXIA-1 6 (49018 NORAD) Tracking and Keplerian Element Data

This shows tracking and keplerian element data for the satellite.

Feedback or suggestion? Click here.




ElementValue
Catalog49018
NameNINGXIA-1 6
Epoch Orbit1007
Epoch Day262.06363918
Epoch Year2021
RAAN128.7393
Inclination45.0015
Eccentricity0.0008013
Argument of Perigee232.138
Mean Anonmoly127.8738
Mean Motion14.08049949
Decay Rate-8.4E-07
L11 49018U 21064A 21262.06363918 -.00000084 00000-0 28026-4 0 9999
L22 49018 45.0015 128.7393 0008013 232.1380 127.8738 14.08049949 10075

Live tracking and technical data element details for NINGXIA-1 6 (NORAD 49018). NINGXIA-1 6 can be tracked NOW for your location showing map with azimuth and elevation plus other details from your city location.

Track the satellite on the map from your city or location and see movement details for azimuth, elevation, latitude, longitude, range, height, and movement on the map or in text.







IsCatalogInMostPopularTable: catalog: 49018, numindb: 16
Update: records affected: 1



GetName: 49018 NINGXIA-1 6

Hit Count: updated at: Fri, 24 Sep 2021 18:17:02 GMT